sat.trackr.live / text

‹ back to catalog

UNKNOWN

NORAD 87293

UNKNOWN UNKNOWN UNKNOWN

§ Identity

Operator
Country
Launch date
Launch site
Launch vehicle
Mass (kg)
RCS (m²)

External: N2YO · Heavens-Above

§ Orbital elements

Epoch: 2026-05-23T19:11:01.847616Z

Period
101.38 min
Inclination
65.8967°
Eccentricity
0.0428186
Mean motion
14.20363229 rev/d
Perigee alt
515.7 km
Apogee alt
1,132.5 km
Semi-major
7,202.3 km
B*
4.3229e-4
RAAN
73.5425°
Arg perigee
272.6465°
Mean anomaly
82.5693°
Rev number
63,699

§ Raw data

UNKNOWN1 87293U          26143.79932694  .00002238  00000+0  43229-3 0  99912 87293  65.8967  73.5425 0428186 272.6465  82.5693 14.20363229636997

JSON: /api/v1/satellites/87293 · /tle

For live sub-satellite position, see the globe view (requires WebGL).

§ Visibility from observer

Set your observer location to see the next 7 days of passes ≥ 10°. The values pass through the URL so the page stays shareable.

No JS? Fill the form by hand. The geolocation button needs JavaScript.